Change the Weather History Date:

Tuesday, December 27, 2011

  Actual Average Record
Temperature  
Mean Temperature 29 °F -  
Max Temperature 37 °F 24 °F 47 °F (1959)
Min Temperature 21 °F 6 °F -28 °F (1950)
Degree Days  
Heating Degree Days 36    
Moisture  
Dew Point 22 °F    
Average Humidity 70    
Maximum Humidity 81    
Minimum Humidity 55    
Precipitation  
Precipitation 0.00 in - - ()
Sea Level Pressure  
Sea Level Pressure 29.85 in    
Wind  
Wind Speed 14 mph (NW)    
Max Wind Speed 21 mph    
Max Gust Speed 26 mph    
Visibility 10 miles    
Events      
Averages and records for this station are not official NWS values.
T = Trace of Precipitation, MM = Missing Value Source: NWS Daily Summary

Daily Weather History Graph

Daily Weather History Graph

Search for Another Location

Airport or City:

Trip Planner

Search our weather history database for the weather conditions in past years. The results will help you decide how hot, cold, wet, or windy it might be!

Date:

Astronomy

Dec. 27, 2011 Rise Set
Actual Time 7:48 AM CST 4:38 PM CST
Civil Twilight 7:15 AM CST 5:12 PM CST
Nautical Twilight 6:38 AM CST 5:49 PM CST
Astronomical Twilight 6:02 AM CST 6:24 PM CST
Moon 9:37 AM CST (12/27) 8:21 PM CST (12/27)
Length of Visible Light 9h 57m
Length of Day
8h 49m
Waxing Crescent, 11% of the Moon is Illuminated
Dec 27
Waxing Crescent
Jan 1
First Quarter
Jan 9
Full
Jan 16
Last Quarter
Jan 23
New

Hourly Weather History & Observations

Time (CST) Temp. Windchill Dew Point Humidity Pressure Visibility Wind Dir Wind Speed Gust Speed Precip Events Conditions
12:08 AM 37.4 °F 29.3 °F 30.2 °F 75% 29.67 in 10.0 mi West 12.7 mph - N/A   Clear
12:29 AM 35.6 °F 26.2 °F 30.2 °F 81% 29.68 in 10.0 mi West 15.0 mph 19.6 mph N/A   Clear
12:48 AM 35.6 °F 28.6 °F 28.4 °F 75% 29.68 in 10.0 mi West 9.2 mph - N/A   Clear
1:08 AM 33.8 °F 24.3 °F 28.4 °F 81% 29.69 in 10.0 mi WNW 13.8 mph - N/A   Clear
1:28 AM 33.8 °F 23.5 °F 28.4 °F 81% 29.69 in 10.0 mi WNW 16.1 mph - N/A   Clear
1:48 AM 35.6 °F 25.5 °F 28.4 °F 75% 29.69 in 10.0 mi WNW 17.3 mph 23.0 mph N/A   Scattered Clouds
2:08 AM 35.6 °F 26.6 °F 28.4 °F 75% 29.70 in 10.0 mi WNW 13.8 mph 23.0 mph N/A   Overcast
2:28 AM 35.6 °F 26.2 °F 28.4 °F 75% 29.70 in 10.0 mi WNW 15.0 mph 20.7 mph N/A   Overcast
2:48 AM 35.6 °F 26.6 °F 28.4 °F 75% 29.71 in 10.0 mi WNW 13.8 mph - N/A   Overcast
3:08 AM 35.6 °F 27.1 °F 28.4 °F 75% 29.71 in 10.0 mi WNW 12.7 mph 18.4 mph N/A   Overcast
3:28 AM 33.8 °F 25.8 °F 28.4 °F 81% 29.72 in 10.0 mi WNW 10.4 mph - N/A   Overcast
3:49 AM 33.8 °F 26.4 °F 28.4 °F 81% 29.73 in 10.0 mi NW 9.2 mph - N/A   Overcast
4:08 AM 33.8 °F 25.8 °F 28.4 °F 81% 29.73 in 10.0 mi WNW 10.4 mph - N/A   Overcast
4:28 AM 33.8 °F 23.9 °F 28.4 °F 81% 29.74 in 10.0 mi NW 15.0 mph - N/A   Overcast
4:48 AM 33.8 °F 22.8 °F 26.6 °F 75% 29.75 in 10.0 mi NW 18.4 mph 25.3 mph N/A   Overcast
5:08 AM 33.8 °F 23.2 °F 26.6 °F 75% 29.75 in 10.0 mi NW 17.3 mph 20.7 mph N/A   Overcast
5:29 AM 33.8 °F 23.9 °F 24.8 °F 70% 29.76 in 10.0 mi NW 15.0 mph 24.2 mph N/A   Overcast
5:48 AM 32.0 °F 20.1 °F 24.8 °F 75% 29.76 in 10.0 mi NW 19.6 mph 25.3 mph N/A   Overcast
6:08 AM 32.0 °F 21.6 °F 24.8 °F 75% 29.78 in 10.0 mi NNW 15.0 mph 24.2 mph N/A   Overcast
6:29 AM 32.0 °F 22.5 °F 24.8 °F 75% 29.79 in 10.0 mi NW 12.7 mph 17.3 mph N/A   Overcast
6:48 AM 32.0 °F 21.6 °F 24.8 °F 75% 29.80 in 10.0 mi NW 15.0 mph - N/A   Overcast
7:08 AM 32.0 °F 22.5 °F 24.8 °F 75% 29.82 in 10.0 mi NW 12.7 mph - N/A   Overcast
7:29 AM 30.2 °F 18.9 °F 24.8 °F 80% 29.83 in 10.0 mi NW 16.1 mph 21.9 mph N/A   Overcast
7:48 AM 30.2 °F 18.1 °F 24.8 °F 80% 29.83 in 10.0 mi NNW 18.4 mph 25.3 mph N/A   Overcast
8:08 AM 30.2 °F 17.8 °F 21.2 °F 69% 29.85 in 10.0 mi North 19.6 mph 26.5 mph N/A   Overcast
8:29 AM 30.2 °F 19.8 °F 21.2 °F 69% 29.87 in 10.0 mi North 13.8 mph 26.5 mph N/A   Overcast
8:48 AM 30.2 °F 18.1 °F 21.2 °F 69% 29.89 in 10.0 mi NNW 18.4 mph 26.5 mph N/A   Overcast
9:08 AM 28.4 °F 16.2 °F 21.2 °F 74% 29.89 in 10.0 mi NNW 17.3 mph 26.5 mph N/A   Overcast
9:29 AM 28.4 °F 17.5 °F 19.4 °F 69% 29.90 in 10.0 mi NNW 13.8 mph 25.3 mph N/A   Overcast
9:48 AM 28.4 °F 17.0 °F 19.4 °F 69% 29.91 in 10.0 mi NNW 15.0 mph 24.2 mph N/A   Overcast
10:08 AM 28.4 °F 16.2 °F 19.4 °F 69% 29.91 in 10.0 mi North 17.3 mph 23.0 mph N/A   Overcast
10:28 AM 28.4 °F 15.1 °F 19.4 °F 69% 29.91 in 10.0 mi NNW 20.7 mph 25.3 mph N/A   Scattered Clouds
10:49 AM 30.2 °F 18.5 °F 19.4 °F 64% 29.91 in 10.0 mi NNW 17.3 mph 21.9 mph N/A   Clear
11:08 AM 30.2 °F 19.3 °F 19.4 °F 64% 29.91 in 10.0 mi North 15.0 mph 23.0 mph N/A   Clear
11:28 AM 30.2 °F 18.9 °F 17.6 °F 60% 29.91 in 10.0 mi NNW 16.1 mph - N/A   Clear
11:49 AM 30.2 °F 19.8 °F 17.6 °F 60% 29.91 in 10.0 mi North 13.8 mph 21.9 mph N/A   Clear
12:08 PM 30.2 °F 19.3 °F 17.6 °F 60% 29.91 in 10.0 mi NNW 15.0 mph - N/A   Clear
12:28 PM 30.2 °F 20.2 °F 17.6 °F 60% 29.90 in 10.0 mi NNW 12.7 mph - N/A   Clear
12:48 PM 30.2 °F 19.3 °F 17.6 °F 60% 29.91 in 10.0 mi NNW 15.0 mph - N/A   Clear
1:08 PM 30.2 °F 18.9 °F 17.6 °F 60% 29.91 in 10.0 mi NNW 16.1 mph 20.7 mph N/A   Clear
1:28 PM 30.2 °F 18.1 °F 17.6 °F 60% 29.92 in 10.0 mi NW 18.4 mph 23.0 mph N/A   Clear
1:48 PM 30.2 °F 19.8 °F 17.6 °F 60% 29.93 in 10.0 mi NNW 13.8 mph - N/A   Clear
2:08 PM 30.2 °F 19.3 °F 17.6 °F 60% 29.94 in 10.0 mi NNW 15.0 mph - N/A   Clear
2:29 PM 30.2 °F 19.3 °F 15.8 °F 55% 29.94 in 10.0 mi NNW 15.0 mph 20.7 mph N/A   Clear
2:48 PM 30.2 °F 18.9 °F 15.8 °F 55% 29.95 in 10.0 mi NNW 16.1 mph - N/A   Clear
3:08 PM 30.2 °F 19.3 °F 15.8 °F 55% 29.95 in 10.0 mi NW 15.0 mph 18.4 mph N/A   Clear
3:29 PM 28.4 °F 19.7 °F 15.8 °F 59% 29.95 in 10.0 mi NW 9.2 mph - N/A   Clear
3:48 PM 28.4 °F 19.1 °F 15.8 °F 59% 29.95 in 10.0 mi NNW 10.4 mph - N/A   Clear
4:08 PM 26.6 °F 17.5 °F 15.8 °F 64% 29.97 in 10.0 mi NW 9.2 mph - N/A   Clear
4:28 PM 26.6 °F 18.2 °F 15.8 °F 64% 29.99 in 10.0 mi NNW 8.1 mph - N/A   Clear
4:48 PM 24.8 °F 17.9 °F 14.0 °F 64% 29.99 in 10.0 mi NNW 5.8 mph - N/A   Clear
5:08 PM 21.2 °F 12.6 °F 14.0 °F 74% 30.00 in 10.0 mi NW 6.9 mph - N/A   Clear
5:48 PM 21.2 °F 16.4 °F 14.0 °F 74% 29.99 in 10.0 mi NW 3.5 mph - N/A   Clear
6:08 PM 21.2 °F 14.9 °F 15.8 °F 80% 30.00 in 10.0 mi NW 4.6 mph - N/A   Clear
6:28 PM 23.0 °F 18.4 °F 15.8 °F 74% 30.00 in 10.0 mi NW 3.5 mph - N/A   Clear
7:09 PM 21.2 °F 16.4 °F 15.8 °F 80% 30.01 in 10.0 mi NNW 3.5 mph - N/A   Clear
7:28 PM 24.8 °F 19.1 °F 12.2 °F 59% 30.01 in 10.0 mi NNW 4.6 mph - N/A   Clear
7:48 PM 24.8 °F 20.5 °F 12.2 °F 59% 30.00 in 10.0 mi North 3.5 mph - N/A   Clear
8:08 PM 24.8 °F 20.5 °F 12.2 °F 59% 30.00 in 10.0 mi North 3.5 mph - N/A   Clear
8:28 PM 24.8 °F - 12.2 °F 59% 30.00 in 10.0 mi Calm Calm - N/A   Clear
8:49 PM 24.8 °F - 12.2 °F 59% 30.01 in 10.0 mi Calm Calm - N/A   Clear
9:08 PM 24.8 °F - 14.0 °F 64% 30.03 in 10.0 mi Calm Calm - N/A   Clear
9:28 PM 24.8 °F - 12.2 °F 59% 30.01 in 10.0 mi Calm Calm - N/A   Clear
9:48 PM 23.0 °F - 14.0 °F 68% 30.01 in 10.0 mi Calm Calm - N/A   Clear
10:08 PM 23.0 °F - 14.0 °F 68% 30.02 in 10.0 mi Calm Calm - N/A   Clear
10:28 PM 23.0 °F - 12.2 °F 63% 30.02 in 10.0 mi Calm Calm - N/A   Clear
10:48 PM 21.2 °F - 15.8 °F 80% 30.02 in 10.0 mi Calm Calm - N/A   Clear
11:08 PM 21.2 °F - 14.0 °F 74% 30.02 in 10.0 mi Calm Calm - N/A   Scattered Clouds
11:28 PM 21.2 °F 16.4 °F 15.8 °F 80% 30.01 in 10.0 mi East 3.5 mph - N/A   Clear